This is the latest recevied weather packets stored in our database for station/object WA4IKQ. If no packets are shown the sender has not sent any weather packets the latest 10 day(s).
| Time | Temp. | Humidity | Pressure | Rain* | Wind** | Luminosity | Snow |
|---|---|---|---|---|---|---|---|
| 1777917695 | 26.67° C | 50% | 1016.6 hPa | 0 mm | 3.13 m/s, 359° | - | - |
| 1777917605 | 26.67° C | 50% | 1016.6 hPa | 0 mm | 3.13 m/s, 359° | - | - |
| 1777917444 | 26.67° C | 49% | 1016.6 hPa | 0 mm | 3.13 m/s, 7° | - | - |
| 1777917302 | 26.67° C | 49% | 1016.6 hPa | 0 mm | 3.13 m/s, 7° | - | - |
| 1777917126 | 26.67° C | 49% | 1016.7 hPa | 0 mm | 1.34 m/s, 113° | - | - |
| 1777917000 | 26.67° C | 49% | 1016.7 hPa | 0 mm | 1.34 m/s, 113° | - | - |
| 1777916886 | 26.67° C | 49% | 1016.7 hPa | 0 mm | 1.34 m/s, 38° | - | - |
| 1777916704 | 26.67° C | 49% | 1016.7 hPa | 0 mm | 1.34 m/s, 38° | - | - |
| 1777916704 | 26.67° C | 49% | 1016.7 hPa | 0 mm | 3.58 m/s, 23° | - | - |
| 1777916399 | 26.67° C | 49% | 1016.7 hPa | 0 mm | 3.58 m/s, 23° | - | - |
| 1777916020 | 26.67° C | 50% | 1016.7 hPa | 0 mm | 3.58 m/s, 84° | - | - |
| 1777915804 | 26.67° C | 50% | 1016.7 hPa | 0 mm | 3.58 m/s, 84° | - | - |
| 1777915208 | 26.67° C | 49% | 1016.9 hPa | 0 mm | 1.79 m/s, 25° | - | - |
| 1777915199 | 26.67° C | 48% | 1016.8 hPa | 0 mm | 1.34 m/s, 82° | - | - |
| 1777914897 | 26.67° C | 49% | 1016.9 hPa | 0 mm | 1.79 m/s, 25° | - | - |
| 1777914816 | 26.67° C | 48% | 1016.8 hPa | 0 mm | 3.13 m/s, 38° | - | - |
| 1777914598 | 26.67° C | 48% | 1016.8 hPa | 0 mm | 3.13 m/s, 38° | - | - |
| 1777914216 | 26.11° C | 48% | 1016.9 hPa | 0 mm | 3.58 m/s, 359° | - | - |
| 1777914107 | 26.11° C | 48% | 1016.9 hPa | 0 mm | 3.58 m/s, 359° | - | - |
| 1777914000 | 26.11° C | 48% | 1016.9 hPa | 0 mm | 3.58 m/s, 359° | - | - |
| 1777913242 | 26.67° C | 49% | 1017 hPa | 0 mm | 2.24 m/s, 51° | - | - |
| 1777912422 | 26.67° C | 50% | 1017 hPa | 0 mm | 3.58 m/s, 8° | - | - |
| 1777912203 | 26.67° C | 50% | 1017 hPa | 0 mm | 3.58 m/s, 8° | - | - |
| 1777911697 | 26.67° C | 48% | 1017.2 hPa | 0 mm | 2.68 m/s, 24° | - | - |
| 1777911193 | 26.67° C | 47% | 1017.2 hPa | 0 mm | 1.34 m/s, 89° | - | - |
* Rain latest hour (hover to see other rain measurements)
** Current wind speed in m/s (hover to see current wind gust speed)